When you browse on this site, cookies collect data to enhance your experience and personalize the content and advertising you see.
Visit our Privacy Policy to learn more. By continuing to use the site, you agree to this use of cookies and data.
  • In Romania
  • List of Countries
  • For 7 days
  • Water Temperature
  • Satellite Maps
  • Weather Map
  • Weather Widgets
  • user-avatar
    Login

    Hourly Weather Glew

    Today, 26 May, Sunday

    Time Temperature Precipitation Wind Pressure Humidity
    00:00 +13°C° 0 mm 1 mps 740 mmHg 88%
    01:00 +12°C° 0 mm 1 mps 740 mmHg 89%
    02:00 +12°C° 0 mm 1 mps 741 mmHg 89%
    03:00 +12°C° 0 mm 1 mps 741 mmHg 90%
    04:00 +12°C° 0 mm 1 mps 741 mmHg 90%
    05:00 +13°C° 0 mm 1 mps 741 mmHg 86%
    06:00 +15°C° 0 mm 1 mps 741 mmHg 83%
    07:00 +17°C° 0 mm 2 mps 741 mmHg 79%
    08:00 +18°C° 0.2 mm 2 mps 741 mmHg 75%
    09:00 +19°C° 0.2 mm 2 mps 741 mmHg 72%
    10:00 +21°C° 0.2 mm 3 mps 741 mmHg 69%
    11:00 +21°C° 0.2 mm 3 mps 740 mmHg 66%
    12:00 +22°C° 0.2 mm 3 mps 740 mmHg 63%
    13:00 +24°C° 0.2 mm 3 mps 740 mmHg 60%
    14:00 +24°C° 0.2 mm 3 mps 740 mmHg 60%
    15:00 +24°C° 0.2 mm 2 mps 740 mmHg 60%
    16:00 +24°C° 0.2 mm 2 mps 740 mmHg 60%
    17:00 +21°C° 0.2 mm 2 mps 740 mmHg 66%
    18:00 +20°C° 0.2 mm 2 mps 739 mmHg 72%
    19:00 +18°C° 0.2 mm 2 mps 739 mmHg 78%
    20:00 +17°C° 0 mm 2 mps 740 mmHg 82%
    21:00 +16°C° 0 mm 2 mps 740 mmHg 85%
    22:00 +15°C° 0 mm 2 mps 740 mmHg 88%
    23:00 +15°C° 0 mm 2 mps 740 mmHg 89%

    Tomorrow, 27 May, Monday

    Time Temperature Precipitation Wind Pressure Humidity
    00:00 +14°C° 0 mm 2 mps 740 mmHg 90%
    01:00 +14°C° 0 mm 2 mps 739 mmHg 90%
    02:00 +14°C° 0 mm 2 mps 739 mmHg 90%
    03:00 +14°C° 0 mm 2 mps 739 mmHg 90%
    04:00 +13°C° 0 mm 2 mps 739 mmHg 89%
    05:00 +15°C° 0 mm 2 mps 739 mmHg 87%
    06:00 +17°C° 0 mm 2 mps 739 mmHg 84%
    07:00 +18°C° 0 mm 2 mps 739 mmHg 81%
    08:00 +20°C° 0 mm 2 mps 739 mmHg 77%
    09:00 +21°C° 0 mm 3 mps 739 mmHg 72%
    10:00 +22°C° 0 mm 3 mps 739 mmHg 68%
    11:00 +24°C° 0.1 mm 3 mps 739 mmHg 64%
    12:00 +25°C° 0.1 mm 3 mps 739 mmHg 59%
    13:00 +26°C° 0.1 mm 2 mps 738 mmHg 55%
    14:00 +25°C° 0.2 mm 2 mps 738 mmHg 60%
    15:00 +25°C° 0.2 mm 2 mps 738 mmHg 65%
    16:00 +24°C° 0.2 mm 2 mps 737 mmHg 70%
    17:00 +23°C° 0.1 mm 2 mps 737 mmHg 72%
    18:00 +22°C° 0.1 mm 1 mps 737 mmHg 75%
    19:00 +19°C° 0.1 mm 0 mps 737 mmHg 78%
    20:00 +18°C° 0.3 mm 0 mps 737 mmHg 81%
    21:00 +20°C° 0.3 mm 1 mps 737 mmHg 85%
    22:00 +19°C° 0.3 mm 1 mps 737 mmHg 88%
    23:00 +19°C° 0.1 mm 1 mps 736 mmHg 90%

    Day after tomorrow, 28 May, Tuesday

    Time Temperature Precipitation Wind Pressure Humidity
    00:00 +18°C° 0.1 mm 1 mps 736 mmHg 92%
    01:00 +18°C° 0.1 mm 1 mps 736 mmHg 94%
    02:00 +16°C° 0.1 mm 1 mps 735 mmHg 94%
    03:00 +16°C° 0.1 mm 1 mps 735 mmHg 94%
    04:00 +16°C° 0.1 mm 1 mps 734 mmHg 93%
    05:00 +17°C° 0 mm 2 mps 734 mmHg 90%
    06:00 +19°C° 0 mm 2 mps 734 mmHg 86%
    07:00 +20°C° 0 mm 2 mps 734 mmHg 82%
    08:00 +21°C° 0 mm 2 mps 734 mmHg 76%
    09:00 +24°C° 0 mm 3 mps 734 mmHg 70%
    10:00 +25°C° 0 mm 3 mps 734 mmHg 64%
    11:00 +25°C° 0.2 mm 3 mps 733 mmHg 64%
    12:00 +25°C° 0.2 mm 2 mps 733 mmHg 64%
    13:00 +25°C° 0.2 mm 2 mps 733 mmHg 64%
    14:00 +24°C° 2.7 mm 2 mps 732 mmHg 71%
    15:00 +21°C° 2.7 mm 2 mps 732 mmHg 78%
    16:00 +20°C° 2.7 mm 2 mps 732 mmHg 85%
    17:00 +20°C° 0.2 mm 2 mps 732 mmHg 85%
    18:00 +20°C° 0.2 mm 1 mps 732 mmHg 86%
    19:00 +20°C° 0.2 mm 1 mps 732 mmHg 86%
    20:00 +19°C° 0.3 mm 1 mps 732 mmHg 87%
    21:00 +17°C° 0.3 mm 2 mps 732 mmHg 89%
    22:00 +16°C° 0.3 mm 2 mps 732 mmHg 90%
    23:00 +16°C° 0.1 mm 2 mps 733 mmHg 92%

    29 May, Wednesday

    Time Temperature Precipitation Wind Pressure Humidity
    00:00 +14°C° 0.1 mm 3 mps 733 mmHg 94%
    01:00 +14°C° 0.1 mm 3 mps 733 mmHg 96%
    02:00 +14°C° 0.2 mm 3 mps 734 mmHg 96%
    03:00 +13°C° 0.2 mm 3 mps 734 mmHg 95%
    04:00 +13°C° 0.2 mm 3 mps 734 mmHg 95%
    05:00 +13°C° 0.3 mm 3 mps 735 mmHg 94%
    06:00 +13°C° 0.3 mm 3 mps 735 mmHg 93%
    07:00 +13°C° 0.3 mm 3 mps 735 mmHg 91%
    08:00 +14°C° 0.1 mm 3 mps 736 mmHg 89%
    09:00 +14°C° 0.1 mm 3 mps 736 mmHg 87%
    10:00 +16°C° 0.1 mm 3 mps 736 mmHg 85%
    11:00 +16°C° 0.3 mm 3 mps 737 mmHg 86%
    12:00 +16°C° 0.3 mm 3 mps 737 mmHg 87%
    13:00 +16°C° 0.3 mm 3 mps 737 mmHg 88%
    14:00 +16°C° 1 mm 3 mps 737 mmHg 89%
    15:00 +14°C° 1 mm 3 mps 737 mmHg 91%
    16:00 +14°C° 1 mm 3 mps 738 mmHg 93%
    17:00 +13°C° 0.4 mm 3 mps 738 mmHg 94%
    18:00 +13°C° 0.4 mm 3 mps 738 mmHg 94%
    19:00 +12°C° 0.4 mm 3 mps 738 mmHg 95%
    20:00 +12°C° 0.2 mm 3 mps 738 mmHg 95%
    21:00 +12°C° 0.2 mm 3 mps 739 mmHg 95%
    22:00 +13°C° 0.2 mm 2 mps 739 mmHg 96%
    23:00 +12°C° 0.2 mm 3 mps 739 mmHg 96%

    30 May, Thursday

    Time Temperature Precipitation Wind Pressure Humidity
    00:00 +11°C° 0.2 mm 4 mps 740 mmHg 95%
    01:00 +11°C° 0.2 mm 4 mps 740 mmHg 95%
    02:00 +10°C° 0.2 mm 4 mps 740 mmHg 94%
    03:00 +10°C° 0.2 mm 4 mps 740 mmHg 94%
    04:00 +8°C° 0.2 mm 4 mps 741 mmHg 93%
    05:00 +8°C° 0.4 mm 4 mps 741 mmHg 93%
    06:00 +8°C° 0.4 mm 3 mps 742 mmHg 92%
    07:00 +8°C° 0.4 mm 3 mps 742 mmHg 92%
    08:00 +8°C° 0.3 mm 3 mps 743 mmHg 92%
    09:00 +8°C° 0.3 mm 3 mps 743 mmHg 92%
    10:00 +8°C° 0.3 mm 3 mps 743 mmHg 91%
    11:00 +9°C° 0.2 mm 3 mps 744 mmHg 91%
    12:00 +9°C° 0.2 mm 3 mps 744 mmHg 91%
    13:00 +9°C° 0.2 mm 3 mps 744 mmHg 90%
    14:00 +10°C° 0.1 mm 3 mps 745 mmHg 90%
    15:00 +10°C° 0.1 mm 3 mps 745 mmHg 89%
    16:00 +12°C° 0.1 mm 2 mps 745 mmHg 89%
    17:00 +12°C° 0.1 mm 2 mps 745 mmHg 90%
    18:00 +12°C° 0.1 mm 2 mps 745 mmHg 91%
    19:00 +12°C° 0.1 mm 2 mps 746 mmHg 91%
    20:00 +10°C° 0 mm 2 mps 746 mmHg 92%
    21:00 +9°C° 0 mm 2 mps 746 mmHg 93%
    22:00 +8°C° 0 mm 2 mps 747 mmHg 94%
    23:00 +8°C° 0 mm 2 mps 747 mmHg 94%

    31 May, Friday

    Time Temperature Precipitation Wind Pressure Humidity
    00:00 +8°C° 0 mm 2 mps 747 mmHg 93%
    01:00 +7°C° 0 mm 2 mps 747 mmHg 93%
    02:00 +7°C° 0 mm 2 mps 747 mmHg 93%
    03:00 +7°C° 0 mm 2 mps 747 mmHg 93%
    04:00 +6°C° 0 mm 2 mps 748 mmHg 93%
    05:00 +8°C° 0 mm 2 mps 748 mmHg 88%
    06:00 +10°C° 0 mm 2 mps 748 mmHg 84%
    07:00 +13°C° 0 mm 2 mps 748 mmHg 80%
    08:00 +14°C° 0 mm 1 mps 748 mmHg 73%
    09:00 +15°C° 0 mm 1 mps 748 mmHg 65%
    10:00 +18°C° 0 mm 1 mps 748 mmHg 58%
    11:00 +19°C° 0 mm 1 mps 748 mmHg 56%
    12:00 +20°C° 0 mm 1 mps 748 mmHg 55%
    13:00 +20°C° 0 mm 1 mps 748 mmHg 53%
    14:00 +20°C° 0.1 mm 1 mps 748 mmHg 57%
    15:00 +19°C° 0.1 mm 2 mps 748 mmHg 61%
    16:00 +18°C° 0.1 mm 2 mps 748 mmHg 65%
    17:00 +17°C° 0 mm 2 mps 748 mmHg 70%
    18:00 +16°C° 0 mm 1 mps 749 mmHg 74%
    19:00 +15°C° 0 mm 1 mps 749 mmHg 78%
    20:00 +14°C° 0 mm 1 mps 749 mmHg 81%
    21:00 +13°C° 0 mm 1 mps 749 mmHg 83%
    22:00 +12°C° 0 mm 1 mps 750 mmHg 86%
    23:00 +11°C° 0 mm 1 mps 749 mmHg 87%
    Show more